Location: D?uga
(50.2667°N, 19.7833°E)
Time: 00:35:18
(UTC+00:00)

Meteor 1-4 Rocket - Pass Details

Date: 23 May 2024
Orbit: 358 x 379 km, 81.2° (Epoch: 18 June)

Event Time Altitude Azimuth Distance (km) Brightness Sun altitude
Exits shadow 00:56:35 21° 248° (WSW) 889 3.4 -12.7°
Maximum altitude 00:57:46 28° 289° (WNW) 721 3.3 -12.6°
Drops below altitude 10° 01:00:21 10° 351° (N) 1,356 5.5 -12.4°
Sets 01:02:31 0° 4° (N) 2,213 7.0 -12.2°
